DW9982 Weather Reports


Display with metric or nautical units.
time (UTC)temp
F
wind
direction
speed
MPH
gust
MPH
rain 1hr
in
rain 24hr
in
rain mn
in
humidity
%
barometer
mb
20260507145016 59 281 2.0 9.0 0.00 0.00 0.00 62 1018.1
20260507144514 58 143 1.0 12.0 0.00 0.00 0.00 64 1018.1
20260507144014 58 252 4.0 13.0 0.00 0.00 0.00 63 1018.2
20260507143513 58 243 3.0 13.0 0.00 0.00 0.00 64 1018.1
20260507143013 58 253 2.0 10.0 0.00 0.00 0.00 63 1018.1
20260507142513 58 235 3.0 12.0 0.00 0.00 0.00 63 1018.1
20260507142011 58 131 2.0 10.0 0.00 0.00 0.00 64 1018.2
20260507141510 58 259 0.0 7.0 0.00 0.00 0.00 66 1018.2
20260507141010 57 270 1.0 8.0 0.00 0.00 0.00 65 1018.2
20260507140513 57 215 0.0 7.0 0.00 0.00 0.00 65 1018.3
20260507140008 57 133 0.0 4.0 0.00 0.00 0.00 65 1018.3
20260507135512 57 205 0.0 6.0 0.00 0.00 0.00 65 1018.3
20260507135010 57 158 1.0 6.0 0.00 0.00 0.00 65 1018.2
20260507134506 57 108 0.0 6.0 0.00 0.00 0.00 66 1018.4
20260507134008 56 149 2.0 6.0 0.00 0.00 0.00 65 1018.3
20260507133504 56 251 0.0 0.0 0.00 0.00 0.00 65 1018.3
20260507133003 55 235 0.0 0.0 0.00 0.00 0.00 66 1018.3
20260507132501 55 276 0.0 0.0 0.00 0.00 0.00 66 1018.4
20260507132100 55 235 0.0 0.0 0.00 0.00 0.00 67 1018.3
20260507131603 54 275 0.0 0.0 0.00 0.00 0.00 67 1018.5
20260507131058 54 205 0.0 3.0 0.00 0.00 0.00 68 1018.6
20260507130556 53 148 0.0 3.0 0.00 0.00 0.00 68 1018.7
20260507130109 53 152 0.0 5.0 0.00 0.00 0.00 68 1018.7
20260507125555 52 123 0.0 5.0 0.00 0.00 0.00 69 1018.8
20260507125053 52 119 0.0 0.0 0.00 0.00 0.00 70 1018.8
20260507124554 51 138 0.0 0.0 0.00 0.00 0.00 70 1018.7
20260507124050 51 162 0.0 0.0 0.00 0.00 0.00 71 1018.6
20260507123549 50 196 0.0 5.0 0.00 0.00 0.00 72 1018.6
20260507123048 49 167 0.0 4.0 0.00 0.00 0.00 73 1018.7
20260507122545 48 162 0.0 0.0 0.00 0.00 0.00 74 1018.7
20260507122043 48 135 0.0 0.0 0.00 0.00 0.00 75 1018.7
20260507121547 47 149 0.0 0.0 0.00 0.00 0.00 77 1018.8
20260507121041 46 183 0.0 0.0 0.00 0.00 0.00 78 1018.7
20260507120541 45 157 0.0 0.0 0.00 0.00 0.00 81 1018.8
20260507120043 43 138 0.0 0.0 0.00 0.00 0.00 83 1018.6
20260507115539 42 139 0.0 0.0 0.00 0.00 0.00 84 1018.6
20260507115040 42 138 0.0 0.0 0.00 0.00 0.00 84 1018.6
20260507114538 41 139 0.0 0.0 0.00 0.00 0.00 83 1018.6
20260507114038 42 139 0.0 0.0 0.00 0.00 0.00 83 1018.6
20260507113538 42 139 0.0 0.0 0.00 0.00 0.00 82 1018.5
20260507113038 42 138 0.0 0.0 0.00 0.00 0.00 81 1018.4
20260507112540 42 139 0.0 0.0 0.00 0.00 0.00 80 1018.4
20260507112037 43 139 0.0 0.0 0.00 0.00 0.00 80 1018.4
20260507111537 43 139 0.0 0.0 0.00 0.00 0.00 81 1018.4
20260507111038 42 146 0.0 0.0 0.00 0.00 0.00 81 1018.4
20260507110539 42 146 0.0 0.0 0.00 0.00 0.00 82 1018.4
20260507110037 42 146 0.0 0.0 0.00 0.00 0.00 82 1018.4
20260507105536 42 146 0.0 0.0 0.00 0.00 0.00 82 1018.4
20260507105041 42 146 0.0 0.0 0.00 0.00 0.00 81 1018.4
20260507104537 42 146 0.0 0.0 0.00 0.00 0.00 81 1018.4
20260507104037 42 146 0.0 0.0 0.00 0.00 0.00 81 1018.4
20260507103539 42 146 0.0 0.0 0.00 0.00 0.00 82 1018.4
20260507103037 41 146 0.0 0.0 0.00 0.00 0.00 82 1018.4
20260507102536 41 146 0.0 0.0 0.00 0.00 0.00 82 1018.3
20260507102035 41 146 0.0 0.0 0.00 0.00 0.00 82 1018.4
20260507101537 41 146 0.0 0.0 0.00 0.00 0.00 81 1018.3
20260507101034 41 146 0.0 0.0 0.00 0.00 0.00 81 1018.5
20260507100537 41 146 0.0 0.0 0.00 0.00 0.00 81 1018.4
20260507100039 41 146 0.0 0.0 0.00 0.00 0.00 81 1018.4
20260507095533 41 146 0.0 0.0 0.00 0.00 0.00 80 1018.4
20260507095032 42 146 0.0 0.0 0.00 0.00 0.00 79 1018.5
20260507094535 42 146 0.0 0.0 0.00 0.00 0.00 79 1018.6
20260507094031 42 146 0.0 0.0 0.00 0.00 0.00 77 1018.6
20260507093531 43 146 0.0 0.0 0.00 0.00 0.00 77 1018.6
20260507093031 43 146 0.0 0.0 0.00 0.00 0.00 76 1018.7
20260507092531 43 146 0.0 0.0 0.00 0.00 0.00 76 1018.7
20260507092030 43 146 0.0 0.0 0.00 0.00 0.00 76 1018.7
20260507091530 43 146 0.0 0.0 0.00 0.00 0.00 77 1018.7
20260507091030 43 146 0.0 0.0 0.00 0.00 0.00 77 1018.6
20260507090531 44 146 0.0 0.0 0.00 0.00 0.00 75 1018.7
20260507090033 44 146 0.0 0.0 0.00 0.00 0.00 75 1018.7
20260507085529 44 146 0.0 0.0 0.00 0.00 0.00 76 1018.7
20260507085029 44 147 0.0 0.0 0.00 0.00 0.00 76 1018.6
20260507084529 44 146 0.0 0.0 0.00 0.00 0.00 75 1018.7
20260507084028 44 146 0.0 0.0 0.00 0.00 0.00 75 1018.7
20260507083528 44 146 0.0 0.0 0.00 0.00 0.00 75 1018.7
20260507083029 44 146 0.0 0.0 0.00 0.00 0.00 75 1018.7
20260507082527 44 146 0.0 0.0 0.00 0.00 0.00 76 1018.7
20260507082027 44 146 0.0 0.0 0.00 0.00 0.00 76 1018.7
20260507081540 44 146 0.0 0.0 0.00 0.00 0.00 74 1018.7
20260507081029 45 146 0.0 0.0 0.00 0.00 0.00 73 1018.6
20260507080527 44 146 0.0 0.0 0.00 0.00 0.00 73 1018.6
20260507080027 45 146 0.0 0.0 0.00 0.00 0.00 74 1018.6
20260507075531 45 146 0.0 0.0 0.00 0.01 0.00 73 1018.6
20260507075029 44 146 0.0 0.0 0.00 0.01 0.00 74 1018.6
20260507074545 44 146 0.0 0.0 0.00 0.01 0.00 75 1018.6
20260507074030 45 146 0.0 0.0 0.00 0.01 0.00 75 1018.7
20260507073525 45 146 0.0 0.0 0.00 0.01 0.00 74 1018.7
20260507073025 45 146 0.0 0.0 0.00 0.01 0.00 74 1018.8
20260507072526 45 146 0.0 0.0 0.00 0.01 0.00 75 1018.9
20260507072022 45 146 0.0 0.0 0.00 0.01 0.00 75 1019.0
20260507071522 45 146 0.0 0.0 0.00 0.01 0.00 74 1019.1
20260507071022 45 146 0.0 0.0 0.00 0.01 0.00 75 1019.1
20260507070526 45 146 0.0 0.0 0.00 0.01 0.00 75 1019.1
20260507070022 45 146 0.0 0.0 0.00 0.01 0.00 74 1019.1
20260507065523 45 146 0.0 0.0 0.00 0.02 0.00 73 1019.1
20260507065020 46 146 0.0 0.0 0.00 0.02 0.00 73 1019.2
20260507064520 45 146 0.0 0.0 0.00 0.02 0.00 72 1019.2
20260507064019 45 146 0.0 0.0 0.00 0.02 0.00 73 1019.3
20260507063519 46 146 0.0 0.0 0.00 0.02 0.00 73 1019.3
20260507063024 46 146 0.0 0.0 0.00 0.02 0.00 73 1019.3
20260507062518 46 146 0.0 0.0 0.00 0.02 0.00 74 1019.4
20260507062018 46 146 0.0 0.0 0.00 0.02 0.00 73 1019.4
20260507061518 46 146 0.0 0.0 0.00 0.02 0.00 73 1019.3
20260507061017 46 146 0.0 0.0 0.00 0.02 0.00 74 1019.3
20260507060517 46 146 0.0 0.0 0.00 0.02 0.00 74 1019.3
20260507060022 46 150 0.0 0.0 0.00 0.02 0.00 74 1019.3
20260507055517 45 165 0.0 0.0 0.00 0.02 0.00 75 1019.4
20260507055016 46 155 0.0 0.0 0.00 0.02 0.00 75 1019.4
20260507054515 46 155 0.0 0.0 0.00 0.02 0.00 74 1019.4
20260507054014 46 146 0.0 0.0 0.00 0.02 0.00 72 1019.4
20260507053513 46 161 0.0 0.0 0.00 0.02 0.00 71 1019.3
20260507053010 46 153 0.0 0.0 0.00 0.02 0.00 71 1019.3
20260507052509 46 139 0.0 0.0 0.00 0.02 0.00 71 1019.3
20260507052009 45 148 0.0 0.0 0.00 0.02 0.00 72 1019.3
20260507051506 45 155 0.0 0.0 0.00 0.02 0.00 74 1019.3
20260507051008 44 131 0.0 0.0 0.00 0.02 0.00 77 1019.3
20260507050504 43 152 0.0 0.0 0.00 0.02 0.00 80 1019.3
20260507050006 42 152 0.0 0.0 0.00 0.02 0.00 83 1019.4
20260507045501 41 283 0.0 0.0 0.00 0.02 0.02 84 1019.5
20260507045002 41 283 0.0 0.0 0.00 0.02 0.02 85 1019.4
20260507044502 41 283 0.0 0.0 0.00 0.02 0.02 85 1019.4
20260507044000 42 282 0.0 0.0 0.00 0.02 0.02 84 1019.4
20260507043501 42 283 0.0 0.0 0.00 0.02 0.02 85 1019.3
20260507043001 42 283 0.0 0.0 0.00 0.02 0.02 85 1019.3
20260507042601 42 283 0.0 0.0 0.00 0.02 0.02 84 1019.3
20260507042059 42 282 0.0 0.0 0.00 0.02 0.02 83 1019.3
20260507041604 42 282 0.0 0.0 0.00 0.02 0.02 83 1019.5
20260507041101 42 283 0.0 0.0 0.00 0.02 0.02 84 1019.6
20260507040558 41 283 0.0 0.0 0.00 0.02 0.02 84 1019.7
20260507040159 41 283 0.0 0.0 0.00 0.02 0.02 82 1019.7
20260507035557 41 283 0.0 0.0 0.00 0.02 0.02 81 1019.6
20260507035056 42 283 0.0 0.0 0.00 0.02 0.02 81 1019.6
20260507034600 42 283 0.0 0.0 0.00 0.02 0.02 80 1019.6
20260507034055 42 283 0.0 0.0 0.00 0.02 0.02 80 1019.5
20260507033558 42 282 0.0 0.0 0.00 0.02 0.02 80 1019.5
20260507033100 42 282 0.0 0.0 0.00 0.02 0.02 79 1019.5
20260507032554 43 282 0.0 0.0 0.00 0.02 0.02 77 1019.5
20260507032052 43 283 0.0 0.0 0.00 0.02 0.02 76 1019.5
20260507031605 43 283 0.0 0.0 0.00 0.02 0.02 76 1019.5
20260507031052 43 282 0.0 0.0 0.00 0.02 0.02 74 1019.6
20260507030551 43 283 0.0 0.0 0.00 0.02 0.02 74 1019.5
20260507030055 43 283 0.0 0.0 0.00 0.02 0.02 73 1019.5
20260507025552 44 282 0.0 0.0 0.00 0.02 0.02 72 1019.4
20260507025048 44 283 0.0 0.0 0.00 0.02 0.02 72 1019.5
20260507024549 44 283 0.0 0.0 0.00 0.02 0.02 71 1019.4
20260507024049 45 283 0.0 0.0 0.00 0.02 0.02 70 1019.3
20260507023548 45 283 0.0 0.0 0.00 0.02 0.02 71 1019.2
20260507023056 46 283 0.0 0.0 0.00 0.02 0.02 69 1019.2
20260507022548 46 283 0.0 0.0 0.00 0.02 0.02 68 1019.2
20260507022048 46 283 0.0 0.0 0.00 0.02 0.02 66 1019.2
20260507021547 47 283 0.0 0.0 0.00 0.02 0.02 65 1019.2
20260507021050 47 283 0.0 0.0 0.00 0.02 0.02 63 1019.1
20260507020547 48 282 0.0 0.0 0.00 0.02 0.02 62 1019.0
20260507020049 48 283 0.0 0.0 0.00 0.02 0.02 60 1019.0
20260507015548 49 283 0.0 0.0 0.00 0.02 0.02 59 1019.1
20260507015046 49 283 0.0 0.0 0.00 0.02 0.02 58 1019.0
20260507014552 50 282 0.0 0.0 0.00 0.02 0.02 55 1019.0
20260507014046 51 283 0.0 0.0 0.00 0.02 0.02 54 1018.9
20260507013546 51 283 0.0 0.0 0.00 0.02 0.02 52 1018.9
20260507013047 52 283 0.0 0.0 0.00 0.02 0.02 49 1018.8
20260507012546 53 283 0.0 0.0 0.00 0.02 0.02 47 1018.7
20260507012045 54 283 0.0 0.0 0.00 0.02 0.02 46 1018.6
20260507011545 55 283 0.0 0.0 0.00 0.02 0.02 44 1018.6
20260507011044 56 282 0.0 0.0 0.00 0.02 0.02 42 1018.6
20260507010545 56 282 0.0 0.0 0.00 0.02 0.02 41 1018.6
20260507010045 57 282 0.0 0.0 0.00 0.02 0.02 40 1018.5
20260507005544 57 282 0.0 0.0 0.00 0.02 0.02 39 1018.5
20260507005044 58 283 0.0 0.0 0.00 0.02 0.02 38 1018.4
20260507004545 58 212 0.0 0.0 0.00 0.02 0.02 39 1018.4
20260507004044 58 277 0.0 0.0 0.00 0.02 0.02 38 1018.6
20260507003546 59 270 0.0 4.0 0.00 0.02 0.02 37 1018.4
20260507003049 59 293 0.0 4.0 0.00 0.02 0.02 36 1018.4
20260507002546 59 316 0.0 2.0 0.00 0.02 0.02 36 1018.4
20260507002042 59 284 0.0 0.0 0.00 0.02 0.02 36 1018.3
20260507001544 59 278 0.0 0.0 0.00 0.02 0.02 36 1018.3
20260507001042 59 265 0.0 3.0 0.00 0.02 0.02 37 1018.4
20260507000545 59 322 0.0 6.0 0.00 0.02 0.02 37 1018.4
20260507000043 59 295 1.0 7.0 0.00 0.02 0.02 35 1018.4
20260506235542 60 291 0.0 7.0 0.00 0.02 0.02 36 1018.5
20260506235043 60 270 1.0 9.0 0.00 0.02 0.02 35 1018.5
20260506234541 60 254 1.0 5.0 0.00 0.02 0.02 36 1018.5
20260506234041 60 297 0.0 4.0 0.00 0.02 0.02 36 1018.4
20260506233541 60 333 0.0 0.0 0.00 0.02 0.02 36 1018.4
20260506233046 60 22 0.0 4.0 0.00 0.02 0.02 35 1018.4
20260506232540 60 329 0.0 6.0 0.00 0.02 0.02 36 1018.3
20260506232040 60 297 2.0 10.0 0.00 0.02 0.02 36 1018.3
20260506231542 60 304 4.0 10.0 0.00 0.02 0.02 35 1018.4
20260506231040 60 309 2.0 9.0 0.00 0.02 0.02 37 1018.4
20260506230539 60 320 2.0 9.0 0.00 0.02 0.02 35 1018.3
20260506230039 60 331 2.0 9.0 0.00 0.02 0.02 35 1018.4
20260506225541 60 9 1.0 9.0 0.00 0.02 0.02 37 1018.3
20260506225039 60 360 1.0 11.0 0.00 0.02 0.02 38 1018.3
20260506224539 60 4 0.0 11.0 0.00 0.02 0.02 38 1018.4
20260506224038 60 253 1.0 10.0 0.00 0.02 0.02 38 1018.3
20260506223538 60 309 0.0 10.0 0.00 0.02 0.02 37 1018.4
20260506223037 60 302 1.0 8.0 0.00 0.02 0.02 37 1018.3
20260506222537 60 79 3.0 13.0 0.00 0.02 0.02 36 1018.4
20260506222036 59 333 6.0 13.0 0.00 0.02 0.02 35 1018.5
20260506221537 60 294 0.0 12.0 0.00 0.02 0.02 36 1018.5
20260506221036 60 315 0.0 6.0 0.00 0.02 0.02 36 1018.5
20260506220536 60 305 1.0 9.0 0.00 0.02 0.02 38 1018.6
20260506220037 60 300 2.0 10.0 0.00 0.02 0.02 37 1018.7
20260506215539 60 278 1.0 11.0 0.00 0.02 0.02 36 1018.8
20260506215036 59 260 4.0 11.0 0.00 0.02 0.02 37 1018.7
20260506214536 59 335 0.0 5.0 0.00 0.02 0.02 36 1018.8
20260506214035 60 292 0.0 11.0 0.00 0.02 0.02 36 1018.9
20260506213634 60 322 0.0 15.0 0.00 0.02 0.02 38 1018.9
20260506213034 59 302 7.0 15.0 0.00 0.02 0.02 36 1018.8
20260506212534 59 284 1.0 13.0 0.00 0.02 0.02 36 1018.8
20260506212035 59 278 0.0 7.0 0.00 0.02 0.02 39 1018.7
20260506211535 59 322 2.0 9.0 0.00 0.02 0.02 37 1018.9
20260506211033 59 293 4.0 12.0 0.00 0.02 0.02 35 1019.2
20260506210533 59 300 6.0 12.0 0.00 0.02 0.02 36 1019.2
20260506210033 59 277 3.0 13.0 0.00 0.02 0.02 37 1019.3
20260506205535 59 236 6.0 11.0 0.00 0.03 0.02 36 1019.3
20260506205034 59 252 4.0 11.0 0.00 0.03 0.02 35 1019.4
20260506204531 59 88 0.0 0.0 0.00 0.03 0.02 37 1019.4
20260506204033 59 82 0.0 7.0 0.00 0.03 0.02 38 1019.4
20260506203530 59 314 1.0 7.0 0.00 0.03 0.02 40 1019.6
20260506203030 59 266 0.0 7.0 0.00 0.03 0.02 36 1019.6
20260506202530 59 262 3.0 12.0 0.00 0.03 0.02 35 1019.6
20260506202030 58 274 3.0 13.0 0.00 0.03 0.02 39 1019.7
20260506201531 59 327 6.0 13.0 0.00 0.03 0.02 35 1019.8
20260506201030 59 295 3.0 12.0 0.00 0.03 0.02 38 1019.8
20260506200533 59 319 2.0 11.0 0.00 0.03 0.02 38 1019.9
20260506200029 59 263 2.0 8.0 0.00 0.03 0.02 37 1019.9
20260506195528 59 298 0.0 5.0 0.00 0.05 0.02 40 1019.9
20260506195027 59 86 0.0 5.0 0.00 0.05 0.02 39 1019.8
20260506194527 58 259 1.0 5.0 0.00 0.05 0.02 37 1020.0
20260506194028 58 86 0.0 8.0 0.00 0.05 0.02 39 1020.0
20260506193526 58 295 1.0 7.0 0.00 0.05 0.02 37 1020.0
20260506193028 58 75 0.0 10.0 0.00 0.05 0.02 38 1020.1
20260506192528 58 280 3.0 9.0 0.00 0.05 0.02 40 1020.1
20260506192024 58 108 0.0 8.0 0.00 0.05 0.02 40 1020.1
20260506191524 58 23 1.0 9.0 0.00 0.05 0.02 41 1020.1
20260506191024 58 327 3.0 10.0 0.00 0.05 0.02 39 1020.3
20260506190523 57 289 3.0 10.0 0.00 0.05 0.02 41 1020.2
20260506190021 57 302 1.0 8.0 0.00 0.05 0.02 40 1020.3
20260506185520 57 251 2.0 8.0 0.00 0.05 0.02 39 1020.3
20260506185020 57 297 2.0 7.0 0.00 0.05 0.02 38 1020.4
20260506184520 57 305 4.0 7.0 0.00 0.05 0.02 40 1020.5
20260506184019 57 13 2.0 8.0 0.00 0.05 0.02 41 1020.4
20260506183519 56 355 1.0 8.0 0.00 0.05 0.02 41 1020.4
20260506183018 56 286 3.0 11.0 0.00 0.05 0.02 40 1020.5
20260506182517 56 304 5.0 11.0 0.00 0.05 0.02 40 1020.5
20260506182020 56 281 2.0 8.0 0.00 0.05 0.02 39 1020.5
20260506181516 56 324 0.0 5.0 0.00 0.05 0.02 44 1020.5
20260506181020 56 253 0.0 5.0 0.00 0.05 0.02 44 1020.7
20260506180516 55 285 1.0 8.0 0.00 0.05 0.02 40 1020.9
20260506180015 55 344 1.0 8.0 0.00 0.05 0.02 40 1020.8
20260506175515 55 281 0.0 6.0 0.00 0.07 0.02 42 1020.9
20260506175019 55 276 2.0 8.0 0.00 0.07 0.02 39 1020.8
20260506174515 55 280 4.0 9.0 0.00 0.07 0.02 39 1020.9
20260506174015 55 281 4.0 9.0 0.00 0.07 0.02 39 1020.9
20260506173515 55 277 1.0 5.0 0.00 0.07 0.02 42 1021.0
20260506173014 55 281 1.0 11.0 0.00 0.07 0.02 42 1021.0
20260506172513 55 248 3.0 12.0 0.00 0.07 0.02 41 1020.9
20260506172012 55 308 4.0 10.0 0.00 0.07 0.02 41 1020.9
20260506171513 55 349 1.0 7.0 0.00 0.07 0.02 42 1020.8
20260506171012 55 348 2.0 12.0 0.00 0.07 0.02 43 1020.9
20260506170511 55 262 4.0 12.0 0.00 0.07 0.02 41 1020.9
20260506170012 55 271 5.0 10.0 0.00 0.07 0.02 41 1020.9
20260506165515 55 326 0.0 8.0 0.00 0.17 0.02 46 1020.7
20260506165011 55 284 3.0 7.0 0.00 0.17 0.02 46 1020.7
20260506164510 55 257 1.0 9.0 0.00 0.17 0.02 45 1020.8
20260506164011 55 284 4.0 9.0 0.00 0.17 0.02 44 1020.8
20260506163510 55 295 2.0 11.0 0.00 0.17 0.02 45 1020.8
20260506163029 55 283 5.0 11.0 0.00 0.17 0.02 43 1020.7
20260506162512 55 291 2.0 9.0 0.00 0.17 0.02 45 1020.6
20260506162008 55 72 3.0 10.0 0.00 0.17 0.02 44 1020.5
20260506161508 55 315 3.0 10.0 0.00 0.17 0.02 45 1020.6
20260506161010 55 245 4.0 11.0 0.00 0.17 0.02 43 1020.6
20260506160510 55 304 4.0 11.0 0.00 0.17 0.02 43 1020.6
20260506160016 55 8 1.0 10.0 0.00 0.17 0.02 46 1020.5
20260506155506 55 314 2.0 6.0 0.00 0.18 0.02 45 1020.4
20260506155007 55 116 0.0 14.0 0.00 0.18 0.02 48 1020.3
20260506154506 55 285 3.0 14.0 0.00 0.18 0.02 43 1020.3
20260506154008 56 278 4.0 10.0 0.00 0.18 0.02 46 1020.3
20260506153503 55 55 3.0 8.0 0.00 0.18 0.02 49 1020.1
20260506153003 55 273 4.0 8.0 0.00 0.18 0.02 46 1020.1
20260506152505 55 352 2.0 7.0 0.00 0.18 0.02 50 1020.1
20260506152002 55 65 1.0 8.0 0.00 0.18 0.02 48 1020.1
20260506151501 55 315 4.0 8.0 0.00 0.18 0.02 47 1020.0
20260506151100 55 316 0.0 5.0 0.00 0.18 0.02 53 1020.2
20260506150600 55 96 0.0 7.0 0.00 0.18 0.02 52 1020.2
20260506145559 55 92 1.0 8.0 0.00 0.27 0.02 55 1020.3
20260506145058 54 354 0.0 8.0 0.00 0.27 0.02 55 1020.2